Wind_Speed
25 27 24 24 22 22 21 21 22 20 26 35 29 31 32 32 30 30 31 32 32 32 31 29 30 30 29 23 21 21 19 18 20 23 18 16 20 20 19 19 19 21 20 20
19 23 22 24 23 24 24 25 26 28 30 30 34 35 35 36 36 36 36 37 39 39 39 40 36 36 37 33 28 25 21 19 20 20 23 21 21 23 24 22 22 20 19 20
22 24 25 25 26 23 27 26 27 30 31 33 34 35 38 39 39 40 40 40 41 44 45 45 44 40 40 40 35 30 23 20 20 20 20 23 24 23 22 25 25 23 23 20
25 23 27 28 26 26 26 28 28 31 34 36 38 39 42 44 44 45 46 45 44 46 47 50 50 49 46 46 43 37 32 25 22 22 23 24 26 25 25 25 25 26 25 24
24 25 30 29 24 26 27 31 32 35 37 39 40 39 44 46 45 46 46 45 44 45 48 50 54 54 54 54 48 46 40 37 32 30 27 27 25 28 27 27 26 26 26 23
24 25 29 26 23 26 30 33 32 35 37 38 39 38 38 46 44 42 39 36 36 38 41 48 51 55 58 59 57 52 48 46 40 36 30 27 26 27 30 28 27 28 26 25
23 24 30 26 28 29 32 34 35 35 37 38 38 39 39 37 34 34 37 41 41 41 36 34 41 50 58 62 61 56 53 52 53 47 36 31 31 30 27 30 29 28 25 24
23 25 31 26 30 30 31 33 34 36 38 38 37 35 31 32 36 39 39 42 37 38 38 43 42 37 47 60 66 61 60 63 60 33 37 35 35 34 32 30 28 24 26 24
23 28 28 29 30 31 30 31 34 35 36 34 29 29 32 38 40 40 39 40 33 33 35 36 39 39 37 50 61 64 68 49 60 55 50 36 36 36 37 32 31 27 25 25
25 26 28 29 30 28 29 31 32 33 31 27 30 32 33 36 37 40 40 36 38 37 33 32 36 40 38 42 52 58 57 60 60 59 46 44 40 36 37 36 34 33 30 27
25 25 27 28 28 28 28 31 32 32 31 32 35 35 34 36 36 38 40 37 37 39 39 34 33 36 36 36 46 53 54 57 58 53 53 50 45 41 39 37 37 35 34 35
25 25 26 28 28 29 29 31 32 32 33 34 35 39 41 40 40 38 41 40 37 36 38 37 34 32 38 40 39 48 52 54 57 58 51 58 58 47 45 41 31 31 40 37
24 24 25 26 28 30 29 30 31 31 33 33 32 40 41 39 38 37 37 35 33 34 34 34 33 33 33 40 43 44 50 52 54 58 50 49 52 45 46 41 33 34 35 40
23 23 25 26 27 29 29 29 30 30 30 31 36 38 38 37 35 33 32 33 32 31 31 33 32 31 32 35 42 47 47 52 50 53 52 46 49 53 48 47 39 37 38 35
23 24 24 26 27 27 27 28 29 29 29 33 37 38 38 36 35 32 30 31 29 28 30 30 31 33 35 32 35 38 43 46 51 49 47 46 44 49 44 43 43 43 46 43
26 27 27 26 26 26 27 28 28 25 28 30 35 31 35 32 35 33 26 25 27 29 29 30 31 33 38 29 34 35 36 43 46 51 48 48 42 44 44 46 47 47 48 49
27 28 28 27 26 28 29 26 24 25 26 29 30 32 31 31 27 22 21 28 33 33 29 28 25 20 19 23 30 34 36 39 44 51 49 46 39 40 44 47 48 45 40 41
26 25 24 23 25 26 27 26 23 24 27 29 27 29 24 24 21 21 23 27 35 38 26 22 19 19 16 19 25 29 31 35 41 46 49 47 45 41 42 47 47 44 45 41
22 20 22 22 22 22 22 22 22 25 25 25 25 25 24 20 22 20 22 27 35 26 16 12 12 9 12 15 18 22 25 26 34 40 43 43 44 44 48 48 47 48 49 46
18 16 18 17 19 20 19 20 20 22 23 23 22 22 20 20 23 23 24 27 41 9 6 5 7 6 9 12 14 18 18 17 26 32 32 36 39 40 45 46 43 36 47 46
18 18 19 21 19 16 15 16 16 19 21 20 19 20 18 19 20 22 21 23 22 11 8 7 6 4 5 9 13 13 13 16 23 26 27 31 34 34 33 38 34 37 37 48
17 17 16 17 16 15 14 13 15 17 19 19 20 20 19 19 19 21 21 21 17 12 6 6 6 3 3 11 12 9 10 15 16 18 21 25 28 29 31 36 36 34 44 43
16 15 16 15 13 11 10 11 13 14 14 16 17 18 17 15 16 17 19 15 14 11 8 4 4 5 3 6 11 13 15 16 17 16 19 24 29 21 20 28 27 21 27 25
15 15 15 14 13 12 11 11 11 11 12 13 13 15 16 17 16 16 18 19 15 13 11 3 4 3 4 6 9 14 16 18 21 18 19 22 24 22 23 18 23 30 28 26
15 14 14 14 16 13 11 10 7 7 9 12 13 14 14 15 16 15 15 16 15 13 12 10 8 9 3 8 11 13 15 15 17 18 19 20 20 24 17 20 16 21 22 29
14 11 8 10 13 10 8 8 6 9 10 12 14 15 15 15 16 16 15 15 14 13 9 7 9 7 9 8 8 13 15 17 16 20 21 21 21 24 25 23 22 23 25 25
12 11 9 15 14 7 8 8 8 10 12 12 12 13 13 14 16 16 15 14 13 12 12 12 10 12 10 9 11 10 8 13 16 18 21 27 28 25 25 27 29 22 26 28
Wind_Direction
234 240 243 255 263 265 264 267 271 259 273 281 287 286 285 284 281 277 275 276 270 264 260 258 264 264 264 262 255 260 276 287 278 261 248 238 241 239 236 235 231 239 242 240
254 258 265 270 269 274 280 282 281 280 277 283 283 283 282 280 278 276 271 266 266 265 262 257 258 259 262 259 253 254 260 265 272 270 261 246 235 239 241 241 235 233 236 238
262 265 269 272 271 279 277 278 280 279 282 284 284 283 282 278 276 272 268 264 260 258 258 258 253 248 254 260 260 253 245 244 251 258 262 258 244 238 239 239 241 236 233 231
268 273 275 276 283 284 285 286 285 284 285 287 288 288 285 284 282 279 275 270 262 255 253 251 249 247 243 246 255 254 246 235 238 249 258 254 253 244 234 237 237 237 239 236
271 275 279 279 286 285 285 284 282 286 287 288 287 286 283 282 282 279 276 274 270 263 254 248 246 240 235 242 239 249 246 242 238 239 249 252 248 248 239 233 234 238 238 240
269 272 274 282 279 279 277 278 288 285 287 287 287 286 282 285 282 282 281 277 272 268 263 255 246 242 233 234 241 232 242 245 239 234 235 242 245 249 247 237 233 236 239 241
271 272 275 282 282 281 284 291 292 294 293 291 290 288 285 282 281 283 284 287 283 278 274 271 259 248 239 234 238 237 235 240 238 229 221 229 238 242 246 243 234 233 234 239
273 274 275 284 285 288 293 296 296 298 298 296 293 289 280 277 284 289 292 291 287 278 273 268 261 259 245 240 239 239 235 243 246 234 223 226 234 237 237 239 234 231 231 231
275 279 284 287 290 293 297 296 299 299 298 296 293 290 289 291 290 290 291 289 288 279 278 275 263 257 252 240 241 240 242 243 248 249 232 229 234 232 232 234 235 230 229 233
277 281 286 288 291 294 293 296 297 296 293 285 290 295 297 293 292 288 290 291 284 279 277 271 265 259 250 242 238 242 238 239 244 250 247 240 235 234 232 233 233 235 233 236
279 284 285 287 291 290 294 298 295 290 284 281 286 297 302 304 302 293 293 292 284 281 278 274 266 263 252 247 236 237 237 236 239 240 240 238 234 232 230 229 236 241 231 233
282 285 286 291 293 297 300 299 296 291 285 286 295 302 308 308 304 296 293 290 289 287 281 275 268 259 255 249 246 235 233 235 236 242 244 233 235 231 230 227 228 242 232 232
282 286 289 290 293 297 300 300 298 293 290 293 302 304 304 303 301 297 295 290 284 290 280 274 268 264 261 248 245 238 230 231 232 235 243 246 234 229 236 242 242 237 234 231
285 290 292 293 294 298 300 300 301 299 297 304 307 308 307 307 306 306 300 292 289 284 279 273 269 264 260 249 245 240 233 228 228 231 234 235 239 230 238 236 231 233 236 234
287 289 290 291 293 294 296 298 299 297 301 307 311 312 316 315 304 300 289 290 289 284 280 278 274 264 258 249 245 235 229 228 224 225 228 228 231 228 232 228 232 238 240 243
292 295 296 294 292 290 291 293 297 300 308 312 311 321 323 322 309 312 286 292 295 294 286 279 280 278 256 247 234 228 230 226 223 221 219 223 224 227 231 233 237 240 242 243
289 292 292 291 291 295 299 299 301 305 311 309 312 320 320 322 327 312 309 304 296 286 288 291 286 267 250 242 223 226 228 223 220 217 219 219 221 224 226 227 231 235 238 241
286 285 285 284 286 288 289 290 292 307 310 309 317 324 325 332 329 318 316 314 318 312 287 295 292 260 247 226 224 228 222 217 220 220 223 224 229 233 231 227 233 238 243 240
278 280 281 279 283 286 285 282 290 304 315 319 325 328 328 318 328 326 327 339 329 314 286 304 292 270 245 229 225 228 221 220 223 223 224 226 228 237 231 235 240 246 243 239
273 274 287 285 292 289 289 296 298 311 318 321 330 336 335 327 328 327 329 330 339 332 305 306 300 310 255 229 227 227 216 221 224 222 226 229 231 232 238 236 249 254 222 221
270 269 274 285 286 287 296 296 306 311 316 318 333 338 334 340 346 346 348 343 1 358 346 347 319 320 272 240 216 202 207 217 227 234 238 238 237 244 249 242 249 253 244 243
268 268 269 281 285 295 288 301 313 315 317 329 337 337 338 338 344 343 345 351 23 7 342 345 355 354 242 204 184 188 213 225 233 241 237 238 242 249 256 253 257 245 241 243
266 270 269 264 273 295 286 302 308 310 315 328 336 338 339 341 347 353 356 349 342 27 0 3 31 11 302 232 210 212 220 229 238 254 244 249 237 244 245 245 225 204 218 219
268 276 266 258 263 284 284 299 299 305 315 321 329 335 349 360 359 357 354 4 355 344 349 236 300 298 291 273 241 223 229 235 246 254 253 253 259 257 241 244 226 232 239 231
271 270 264 268 274 256 273 293 300 314 330 338 344 351 354 354 358 4 360 359 2 356 351 338 6 344 255 244 241 245 254 248 254 260 257 258 261 267 273 275 242 240 240 240
255 248 252 245 258 250 267 275 291 312 324 329 332 335 340 344 348 352 357 3 360 1 357 353 10 343 333 329 261 246 247 251 261 265 259 259 264 261 267 264 266 261 247 247
253 223 245 248 257 256 261 265 286 301 310 316 321 322 328 331 334 337 341 347 349 351 344 337 298 310 313 310 297 297 301 248 258 262 253 253 254 256 272 270 255 254 242 252
Height
5872 5872 5874 5873 5873 5873 5873 5874 5874 5876 5873 5864 5867 5866 5865 5864 5864 5864 5864 5863 5863 5863 5864 5865 5864 5864 5865 5866 5866 5866 5867 5867 5866 5866 5864 5863 5865 5867 5868 5870 5871 5873 5876 5879
5865 5865 5865 5865 5865 5864 5864 5864 5864 5863 5862 5860 5858 5857 5856 5855 5854 5853 5854 5854 5854 5854 5854 5854 5855 5855 5855 5856 5858 5859 5860 5860 5861 5861 5862 5861 5860 5862 5864 5866 5867 5869 5871 5873
5859 5858 5858 5859 5858 5859 5856 5857 5856 5853 5851 5849 5847 5846 5844 5842 5842 5841 5841 5841 5841 5841 5842 5842 5844 5845 5845 5846 5849 5852 5853 5853 5853 5854 5855 5856 5856 5857 5859 5860 5861 5864 5866 5868
5851 5852 5850 5849 5849 5848 5847 5846 5845 5842 5840 5838 5836 5833 5829 5827 5826 5824 5824 5825 5826 5826 5826 5828 5829 5832 5834 5835 5836 5840 5843 5845 5845 5846 5847 5849 5851 5853 5853 5854 5856 5858 5860 5863
5844 5844 5841 5840 5841 5840 5839 5836 5835 5833 5830 5827 5825 5822 5814 5812 5810 5808 5807 5807 5809 5809 5810 5811 5813 5816 5820 5822 5824 5827 5830 5833 5835 5837 5839 5841 5844 5845 5846 5848 5850 5851 5853 5856
5837 5836 5834 5832 5834 5833 5830 5828 5828 5823 5819 5816 5812 5809 5805 5796 5796 5794 5793 5793 5793 5792 5793 5794 5796 5800 5804 5807 5808 5812 5817 5821 5824 5826 5828 5832 5835 5837 5839 5842 5843 5844 5847 5850
5828 5828 5824 5826 5825 5823 5821 5820 5813 5811 5807 5803 5800 5796 5792 5788 5785 5783 5783 5782 5780 5780 5780 5781 5781 5784 5789 5791 5790 5796 5802 5808 5807 5808 5815 5819 5823 5827 5831 5834 5836 5838 5840 5842
5821 5820 5817 5818 5814 5813 5810 5805 5802 5798 5794 5790 5787 5783 5780 5779 5776 5774 5772 5768 5767 5766 5765 5765 5767 5768 5772 5776 5777 5781 5784 5789 5787 5771 5800 5806 5812 5817 5821 5825 5828 5830 5832 5834
5814 5810 5809 5806 5803 5801 5799 5795 5790 5787 5782 5778 5776 5774 5771 5769 5764 5761 5759 5756 5754 5753 5751 5751 5751 5754 5756 5759 5764 5767 5771 5774 5778 5777 5785 5797 5801 5806 5811 5815 5819 5822 5825 5827
5805 5803 5799 5796 5794 5793 5789 5785 5781 5777 5774 5770 5767 5765 5762 5758 5755 5750 5748 5746 5743 5741 5741 5739 5738 5739 5742 5744 5748 5752 5759 5764 5768 5769 5779 5786 5792 5795 5802 5806 5810 5813 5816 5818
5795 5794 5791 5788 5786 5783 5780 5777 5773 5769 5765 5762 5759 5756 5753 5749 5744 5738 5735 5733 5730 5727 5726 5728 5727 5727 5729 5731 5733 5737 5745 5751 5756 5762 5766 5772 5778 5785 5792 5796 5800 5803 5807 5808
5786 5784 5782 5778 5776 5773 5771 5767 5762 5759 5755 5752 5749 5744 5740 5737 5732 5727 5723 5719 5717 5715 5712 5713 5714 5715 5715 5718 5720 5723 5729 5736 5743 5746 5752 5759 5766 5775 5780 5784 5789 5791 5794 5799
5778 5775 5773 5770 5767 5764 5761 5757 5753 5749 5745 5742 5742 5736 5730 5724 5720 5714 5710 5707 5705 5704 5700 5699 5700 5701 5701 5702 5706 5710 5715 5721 5729 5736 5742 5747 5751 5762 5768 5774 5777 5781 5785 5789
5769 5767 5764 5761 5758 5755 5752 5748 5744 5740 5737 5734 5731 5725 5719 5713 5708 5703 5699 5696 5694 5691 5688 5686 5686 5688 5688 5689 5691 5695 5701 5708 5715 5723 5732 5738 5743 5751 5756 5762 5766 5771 5776 5780
5760 5758 5756 5753 5750 5747 5744 5741 5737 5733 5730 5726 5720 5715 5709 5704 5698 5692 5689 5687 5683 5680 5677 5676 5675 5674 5673 5676 5678 5682 5688 5696 5704 5711 5718 5725 5732 5740 5744 5750 5756 5760 5765 5770
5750 5749 5746 5744 5742 5739 5737 5733 5730 5727 5724 5719 5714 5709 5702 5694 5689 5683 5679 5677 5673 5670 5667 5665 5662 5660 5658 5662 5667 5673 5678 5685 5693 5700 5707 5714 5721 5728 5733 5739 5744 5748 5753 5757
5742 5740 5738 5736 5733 5730 5727 5725 5724 5721 5717 5713 5708 5703 5696 5689 5682 5677 5674 5671 5666 5662 5659 5655 5651 5649 5650 5652 5657 5664 5669 5676 5683 5690 5698 5704 5711 5718 5723 5727 5732 5737 5741 5743
5734 5733 5731 5729 5727 5724 5721 5719 5718 5716 5712 5707 5702 5696 5690 5684 5679 5674 5670 5665 5659 5652 5649 5647 5644 5644 5645 5646 5651 5656 5662 5668 5676 5683 5690 5696 5702 5708 5711 5716 5720 5724 5727 5732
5727 5726 5724 5722 5720 5718 5716 5714 5713 5711 5706 5701 5696 5690 5685 5680 5676 5672 5666 5660 5652 5645 5644 5643 5641 5640 5642 5645 5647 5651 5658 5664 5671 5677 5683 5689 5694 5698 5701 5706 5709 5712 5712 5719
5719 5719 5716 5715 5713 5712 5710 5709 5707 5705 5701 5697 5692 5687 5682 5678 5673 5668 5663 5657 5647 5639 5639 5639 5639 5639 5640 5642 5644 5649 5655 5661 5667 5672 5677 5681 5684 5688 5693 5697 5698 5695 5696 5701
5712 5712 5711 5709 5708 5707 5706 5705 5702 5699 5697 5693 5689 5685 5681 5675 5671 5667 5662 5656 5646 5642 5641 5640 5639 5639 5640 5642 5645 5648 5653 5659 5665 5669 5673 5675 5678 5681 5683 5688 5691 5690 5692 5699
5706 5706 5705 5704 5703 5702 5702 5700 5698 5696 5693 5689 5685 5682 5678 5674 5669 5666 5661 5655 5648 5643 5644 5643 5642 5642 5643 5644 5645 5648 5653 5659 5663 5665 5668 5670 5673 5675 5676 5679 5682 5684 5688 5689
5700 5700 5699 5699 5698 5698 5698 5697 5695 5693 5690 5687 5683 5680 5677 5673 5669 5665 5661 5656 5652 5647 5647 5645 5644 5644 5644 5645 5647 5649 5652 5655 5659 5662 5664 5666 5668 5669 5671 5671 5674 5676 5679 5682
5695 5695 5694 5694 5694 5695 5694 5693 5691 5689 5687 5685 5682 5678 5675 5671 5668 5663 5660 5656 5652 5650 5647 5646 5645 5645 5644 5645 5646 5648 5650 5651 5653 5655 5657 5660 5659 5662 5664 5666 5667 5672 5674 5674
5690 5690 5690 5690 5691 5690 5689 5689 5688 5686 5685 5682 5680 5676 5673 5671 5668 5664 5661 5657 5654 5651 5648 5646 5644 5643 5640 5642 5643 5645 5647 5648 5648 5649 5651 5653 5655 5655 5657 5660 5660 5662 5665 5667
5685 5685 5686 5686 5686 5685 5685 5685 5684 5683 5682 5680 5678 5675 5672 5669 5666 5664 5661 5658 5655 5652 5650 5649 5646 5644 5643 5641 5640 5641 5643 5644 5645 5645 5646 5647 5648 5649 5650 5652 5654 5656 5657 5658
5681 5682 5682 5683 5682 5682 5683 5682 5681 5680 5678 5677 5675 5673 5670 5667 5664 5661 5659 5657 5655 5653 5650 5648 5645 5644 5642 5640 5638 5636 5637 5638 5639 5639 5639 5640 5642 5644 5645 5645 5644 5643 5646 5649